Home > Time Zones > World Clock > Weather > Spain > Jaén > Past weeks

Flag for Spain Weather past 2 weeks in Jaén, Spain

Now
93 °F

Passing clouds.


Feels Like: 89 °F
Forecast: 65 / 95 °F
Wind: 12 mph from Southwest

Location: Granada / Aeropuerto

Current Time: Jul 31, 2015 at 6:15:04 PM

Latest Report: Jul 31, 2015 at 5:30 PM


Visibility: N/A

Pressure: 29.80 "Hg (27.98 "Hg at 565m altitude)

Humidity: 11%

Dew point: 32 °F

Location of JaénLocation

Historic Weather in Jaén — Graph

°F

Jaén temperature yesterday

Maximum temperature yesterday: 99 °F (at 4:00 PM)
Minimum temperature yesterday: 66 °F (at 8:00 AM)
Average temperature yesterday: 87 °F

Past Weeks' High & Low Weather Summary

 TemperatureHumidityPressure
High108 °F (Jul 28, 5:00 PM)73% (Jul 25, 6:30 AM)30.12 "Hg (Jul 25, 6:30 AM)
Low63 °F (Jul 20, 6:30 AM)8% (Jul 20, 3:00 PM)29.80 "Hg (Jul 31, 5:00 PM)
Average88 °F28%30.00 "Hg
* Reported Jul 16 5:00 PM — Jul 31 5:00 PM, Jaén, Weather by CustomWeather, © 2015

Note: Actual official high and low records may vary slightly from our data, if they occured in-between our weather recording intervals... More about our weather records

Advertising

Jaén weather history for previous 24 hours

 ConditionsComfort  
Time TempWeatherWind HumidityBarometerVisibility
5:00 PM
Fri, Jul 31
95 °FPassing clouds.12 mph16%29.80 "HgN/A
4:30 PM93 °FPassing clouds.13 mph10%29.83 "HgN/A
4:00 PM93 °FPassing clouds.13 mph12%29.83 "HgN/A
3:30 PM91 °FPassing clouds.12 mph20%29.83 "HgN/A
3:00 PM91 °FPassing clouds.10 mph23%29.83 "HgN/A
2:30 PM90 °FPassing clouds.8 mph31%29.86 "HgN/A
2:00 PM91 °FPassing clouds.9 mph32%29.86 "HgN/A
1:30 PM88 °FPassing clouds.1 mph35%29.86 "HgN/A
1:00 PM88 °FPassing clouds.5 mph31%29.86 "HgN/A
12:30 PM84 °FPassing clouds.7 mph35%29.86 "HgN/A
12:00 PM84 °FPassing clouds.5 mph35%29.89 "HgN/A
11:30 AM82 °FPassing clouds.5 mph37%29.89 "HgN/A
11:00 AM81 °FPassing clouds.3 mph39%29.86 "HgN/A
10:30 AM77 °FPassing clouds.5 mph42%29.89 "HgN/A
10:00 AM73 °FSunny.2 mph44%29.89 "Hg10 mi
9:30 AM72 °FSunny.No wind47%29.86 "Hg10 mi
9:00 AM70 °FSunny.1 mph50%29.86 "Hg10 mi
8:30 AM68 °FSunny.1 mph49%29.86 "Hg10 mi
8:00 AM66 °FPassing clouds.2 mph56%29.86 "HgN/A
7:30 AM64 °FPassing clouds.2 mph60%29.86 "HgN/A
7:00 AM64 °FPassing clouds.1 mph56%29.86 "HgN/A
6:30 AM66 °FPassing clouds.2 mph56%29.86 "HgN/A
11:30 PM
Thu, Jul 30
82 °FClear.1 mph28%29.89 "Hg10 mi
11:00 PM82 °FClear.6 mph28%29.89 "Hg10 mi
10:30 PM82 °FClear.No wind28%29.89 "Hg10 mi
10:00 PM84 °FSunny.6 mph25%29.86 "Hg10 mi
9:30 PM88 °FSunny.8 mph21%29.86 "Hg10 mi
9:00 PM90 °FPassing clouds.9 mph20%29.86 "HgN/A
8:30 PM93 °FPassing clouds.12 mph15%29.86 "HgN/A
8:00 PM93 °FPassing clouds.12 mph17%29.83 "HgN/A
7:30 PM95 °FPassing clouds.13 mph16%29.83 "HgN/A
7:00 PM97 °FPassing clouds.13 mph14%29.86 "HgN/A
6:30 PM97 °FPassing clouds.14 mph13%29.86 "HgN/A
6:00 PM97 °FPassing clouds.12 mph13%29.86 "HgN/A
Weather by CustomWeather, © 2015

See weather overviewHow to use our weather pages